Flag for Spain

Past Weather in Ibiza, Ibiza, Spain — Yesterday and Last 2 Weeks

Now
68 °F

Sunny.


Feels Like: 68 °F
Forecast: 85 / 67 °F
Wind: 1 mph from North

Location: Ibiza / Es Codola

Current Time: Jul 5, 2020 at 8:15:45 am

Latest Report: Jul 5, 2020 at 7:30 am


Visibility: 10 mi

Pressure: 30.12 "Hg

Humidity: 73%

Dew Point: 59 °F

Location of IbizaLocation

Past Weather in Ibiza — Graph

°F

Ibiza Temperature Yesterday

Maximum temperature yesterday: 82 °F (at 1:00 pm)
Minimum temperature yesterday: 70 °F (at 6:00 am)
Average temperature yesterday: 76 °F

High & Low Weather Summary for the Past Weeks

 TemperatureHumidityPressure
High84 °F (Jun 22, 12:30 pm)100% (Jun 30, 6:30 am)30.18 "Hg (Jun 30, 6:30 am)
Low64 °F (Jun 21, 4:00 am)37% (Jun 22, 11:30 am)29.80 "Hg (Jun 30, 8:30 pm)
Average76 °F76%30.02 "Hg
* Reported Jun 20 7:00 am — Jul 5 7:00 am, Ibiza. Weather by CustomWeather, © 2020

Note: Actual official high and low records may vary slightly from our data, if they occured in-between our weather recording intervals... More about our weather records

Ibiza Weather History for the Previous 24 Hours

Scroll right to see more
 ConditionsComfort  
Time TempWeatherWind HumidityBarometerVisibility
7:00 am
Sun, Jul 5
66 °FPassing clouds.3 mph78%30.12 "HgN/A
6:30 am64 °FClear.No wind83%30.12 "Hg10 mi
6:00 am66 °FClear.2 mph78%30.12 "Hg10 mi
5:30 am66 °FClear.1 mph78%30.12 "Hg10 mi
5:00 am66 °FPassing clouds.3 mph78%30.12 "HgN/A
4:30 am66 °FClear.No wind73%30.12 "Hg10 mi
4:00 am66 °FClear.No wind73%30.12 "Hg10 mi
3:30 am68 °FClear.3 mph69%30.12 "Hg10 mi
2:30 am68 °FPassing clouds.3 mph78%30.15 "HgN/A
2:00 am70 °FClear.2 mph83%30.15 "Hg10 mi
1:30 am70 °FPassing clouds.3 mph83%30.15 "HgN/A
1:00 am72 °FClear.5 mph83%30.15 "Hg10 mi
12:30 am72 °FClear.3 mph83%30.15 "Hg10 mi
12:00 am73 °FClear.2 mph78%30.15 "Hg10 mi
11:30 pm
Sat, Jul 4
73 °FClear.3 mph78%30.15 "Hg10 mi
11:00 pm73 °FClear.No wind78%30.15 "Hg10 mi
10:30 pm75 °FClear.3 mph74%30.15 "Hg10 mi
10:00 pm75 °FClear.1 mph74%30.12 "Hg10 mi
9:30 pm77 °FPassing clouds.3 mph69%30.12 "HgN/A
9:00 pm77 °FPassing clouds.6 mph69%30.12 "HgN/A
8:30 pm79 °FPassing clouds.7 mph70%30.12 "HgN/A
8:00 pm79 °FPassing clouds.7 mph65%30.12 "HgN/A
7:30 pm81 °FPassing clouds.6 mph58%30.12 "HgN/A
7:00 pm81 °FPassing clouds.8 mph62%30.12 "HgN/A
6:30 pm81 °FPassing clouds.7 mph66%30.12 "HgN/A
6:00 pm81 °FPassing clouds.8 mph62%30.12 "HgN/A
5:30 pm81 °FPassing clouds.9 mph62%30.12 "HgN/A
5:00 pm81 °FPassing clouds.9 mph62%30.12 "HgN/A
4:30 pm81 °FPassing clouds.9 mph62%30.15 "HgN/A
4:00 pm81 °FPassing clouds.12 mph62%30.15 "HgN/A
3:30 pm81 °FPassing clouds.13 mph62%30.15 "HgN/A
3:00 pm81 °FPassing clouds.13 mph62%30.15 "HgN/A
2:00 pm81 °FScattered clouds.9 mph62%30.18 "HgN/A
1:30 pm82 °FPassing clouds.7 mph55%30.18 "HgN/A
1:00 pm82 °FPassing clouds.7 mph55%30.18 "HgN/A
12:30 pm81 °FPassing clouds.7 mph58%30.18 "HgN/A
12:00 pm81 °FPassing clouds.7 mph58%30.18 "HgN/A
11:30 am81 °FPassing clouds.7 mph58%30.15 "HgN/A
11:00 am79 °FPassing clouds.8 mph61%30.15 "HgN/A
10:30 am79 °FPassing clouds.7 mph61%30.15 "HgN/A
10:00 am77 °FPassing clouds.7 mph65%30.15 "HgN/A
9:30 am77 °FPassing clouds.5 mph69%30.15 "HgN/A
9:00 am77 °FScattered clouds.5 mph69%30.15 "HgN/A
8:30 am75 °FScattered clouds.1 mph74%30.15 "HgN/A
8:00 am73 °FScattered clouds.1 mph78%30.12 "HgN/A
Weather by CustomWeather, © 2020

See weather overview